Regional Weather Roundup
Issued by NWS Little Rock, AR

Home | Current Version | Previous Version | Graphics & Text | Print | Product List | Glossary On
Versions: 1 2 3 4 5 6 7 8 9 10 11 12 13 14 15 16 17 18 19 20 21 22 23 24 25 26 27 28 29 30 31 32 33 34 35 36 37 38 39 40 41 42 43 44 45 46 47 48 49 50
000
ASUS44 KLZK 181705
RWRLZK

WEATHER ROUNDUP FOR ARKANSAS
NATIONAL WEATHER SERVICE LITTLE ROCK AR
1200 PM CDT THU SEP 18 2014

NOTE: "FAIR" INDICATES FEW OR NO CLOUDS BELOW 12,000 FEET WITH NO
SIGNIFICANT WEATHER AND/OR OBSTRUCTIONS TO VISIBILITY.

ARZ001-003-010-029-181800-
NORTHWEST ARKANSAS

CITY           SKY/WX    TMP DP  RH WIND       PRES   REMARKS
FAYETTEVILLE   CLOUDY    77  66  68 E13G18    29.96R
FORT SMITH     CLOUDY    75  63  66 S7        29.95F
HARRISON       CLOUDY    67  64  90 E6G16     30.02R
BENTONVILLE    CLOUDY    77  63  61 E12       29.97R
ROGERS         CLOUDY    71  62  73 NE10      29.99R
SILOAM SPGS    CLOUDY    77  63  61 W9        29.95S
HIGHFILL       CLOUDY    76  65  68 NE10      29.96R
SPRINGDALE     PTSUNNY   73  63  68 MISG      29.99R
$$

ARZ004-005-016-181800-
NORTH CENTRAL ARKANSAS

CITY           SKY/WX    TMP DP  RH WIND       PRES   REMARKS
BATESVILLE     CLOUDY    68  63  83 NE8       30.01R
FLIPPIN        CLOUDY    64  61  88 E5        30.02R
MTN HOME       CLOUDY    64  64 100 SE6       30.01S FOG
$$

ARZ040-041-181800-
WEST CENTRAL ARKANSAS

CITY           SKY/WX    TMP DP  RH WIND       PRES   REMARKS
MENA           MOSUNNY   82  64  54 CALM      29.98F
MOUNT IDA      MOSUNNY   83  62  49 VRB5      29.95F
$$

ARZ009-017-025-026-028-181800-
NORTHEAST ARKANSAS

CITY           SKY/WX    TMP DP  RH WIND       PRES   REMARKS
CORNING          N/A     66  63  88 NE9       30.03F
JONESBORO      CLOUDY    69  65  86 NE12      29.99F
NEWPORT        CLOUDY    71  65  81 NE12      30.01R
WALNUT RIDGE   CLOUDY    66  61  82 NE10      30.02R
BLYTHEVILLE    CLOUDY    69  65  86 NE6       30.02R
$$

ARZ022-023-033-042-044-181800-
CENTRAL ARKANSAS

CITY           SKY/WX    TMP DP  RH WIND       PRES   REMARKS
LITTLE ROCK    CLOUDY    79  67  66 NW6       29.96F
N LITTLE ROCK  CLOUDY    73  69  86 NE3       29.96F
SEARCY         CLOUDY    73  66  78 NE8       29.99S
HOT SPRINGS    MOSUNNY   82  68  62 VRB7      29.96F HX  85
RUSSELLVILLE   PTSUNNY   77  69  76 VRB3      29.96S
CLINTON        CLOUDY    73  70  88 CALM      29.99S HAZE
$$

ARZ036-181800-
EAST ARKANSAS

CITY           SKY/WX    TMP DP  RH WIND       PRES   REMARKS
WEST MEMPHIS   CLOUDY    78  68  71 CALM      29.95F
$$

ARZ050-053-066-070-073-181800-
SOUTHWEST ARKANSAS

CITY           SKY/WX    TMP DP  RH WIND       PRES   REMARKS
ARKADELPHIA    FAIR      84  74  72 CALM      29.94F HX  91
CAMDEN         CLOUDY    88  72  58 CALM      29.93F HX  94
TEXARKANA      CLOUDY    81  74  79 E3        29.94S HX  86
EL DORADO      CLOUDY    86  71  60 SE5       29.94F HX  91
DE QUEEN       CLOUDY    76  72  87 SE6       29.95S
$$

ARZ056-057-069-181800-
SOUTHEAST ARKANSAS

CITY           SKY/WX    TMP DP  RH WIND       PRES   REMARKS
PINE BLUFF     MOSUNNY   75  69  81 NW3       29.95S
STUTTGART      MOSUNNY   77  68  73 NE5       29.95F
MONTICELLO     PTSUNNY   87  69  54 N5        29.93F HX  91

$$





USA.gov is the U.S. government's official web portal to all federal, state and local government web resources and services.